Hourly Data Report for October 03, 2017

All times are specified in Local Standard Time (LST). Add 1 hour to adjust for Daylight Saving Time where and when it is observed.

PORT HARDY A
BRITISH COLUMBIA

50°40'50.000" N
127°22'00.000" W
21.60 m
1026271
71109
YZT

Download Data

Hourly Data (October 2017)
Hourly Data Report for October 3, 2017
Temp Definition
°C
Dew Point Temp Definition
°C
Rel Hum Definition
%
Wind Dir Definition
10's deg

Wind Spd Definition
km/h
Visibility Definition
km
Stn Press Definition
kPa
Hmdx Definition


Wind Chill Definition


Weather Definition


TIME
00:00 Legend Double Dagger 2.7 1.7 93 18 4 24.1 102.37     LegendNANA
01:00 Legend Double Dagger 2.3 1.2 93 17 4 24.1 102.41     Clear
02:00 Legend Double Dagger 1.7 0.8 94 17 4 24.1 102.43     LegendNANA
03:00 Legend Double Dagger 1.1 0.3 95 25 7 24.1 102.45     LegendNANA
04:00 Legend Double Dagger 1.2 0.5 95 19 4 24.1 102.46     Clear
05:00 Legend Double Dagger 1.2 0.5 95 25 6 24.1 102.46     LegendNANA
06:00 Legend Double Dagger 0.5 0.0 96 25 8 32.2 102.44     LegendNANA
07:00 Legend Double Dagger 0.8 0.2 96 22 4 32.2 102.46     Clear
08:00 Legend Double Dagger 5.1 4.5 96 8 3 32.2 102.47     LegendNANA
09:00 Legend Double Dagger 7.9 5.3 84 5 3 32.2 102.51     LegendNANA
10:00 Legend Double Dagger 9.3 5.8 79 6 7 32.2 102.50     Mainly Clear
11:00 Legend Double Dagger 10.7 5.4 69 8 11 32.2 102.48     LegendNANA
12:00 Legend Double Dagger 11.5 6.8 73 7 13 32.2 102.44     LegendNANA
13:00 Legend Double Dagger 11.8 7.3 73 4 8 32.2 102.40     Mainly Clear
14:00 Legend Double Dagger 12.6 6.0 64 6 4 32.2 102.38     LegendNANA
15:00 Legend Double Dagger 13.5 6.1 61 3 3 32.2 102.32     LegendNANA
16:00 Legend Double Dagger 14.7 6.0 56 4 3 32.2 102.27     Mainly Clear
17:00 Legend Double Dagger 12.4 6.1 65 7 3 32.2 102.24     LegendNANA
18:00 Legend Double Dagger 8.1 5.6 84 24 5 32.2 102.22     LegendNANA
19:00 Legend Double Dagger 6.6 5.1 90 28 6 24.1 102.23     Clear
20:00 Legend Double Dagger 4.5 3.4 93 21 5 24.1 102.22     LegendNANA
21:00 Legend Double Dagger 4.1 3.2 94 29 3 24.1 102.24     LegendNANA
22:00 Legend Double Dagger 2.9 2.0 94 22 8 24.1 102.23     Clear
23:00 Legend Double Dagger 2.0 0.9 92 22 6 24.1 102.21     LegendNANA

Notes on Data Quality.

Legend

  • E = Estimated
  • M = Missing
  • NA = Not Available
  • ‡ = Partner data that is not subject to review by the National Climate Archives
Date modified: